Simultaneous Nadir Overpasses (SNOs) Predictions

Prediction of SNOs between GOES-15 and TERRA Satellite Orbit:

Table of predicted SNOs for the next 14.0 days since TLE Epoch: 4/21/2014
Index Date Time (GOES-15) GOES-15 Lat,Lon TERRA Lat,Lon Distance(km) Time Diff (sec)
1 04/21/2014 07:28:15 -0.01,-135.41 0.13,-134.89 59.70 80
2 04/23/2014 07:16:00 -0.01,-135.39 0.70,-131.91 395.29 80
3 04/23/2014 19:37:15 0.00,-135.39 0.37,-137.07 190.65 80
4 04/25/2014 19:27:40 0.01,-135.37 -0.24,-134.09 144.94 80
5 04/26/2014 07:49:04 -0.00,-135.36 -0.82,-139.29 446.06 80
6 04/27/2014 19:15:25 0.01,-135.35 -0.88,-131.12 480.33 80
7 04/28/2014 07:36:48 -0.01,-135.34 -0.23,-136.31 110.78 80
8 04/30/2014 07:21:52 -0.01,-135.30 0.39,-133.33 224.22 80
9 04/30/2014 19:43:07
